CW7352 Weather Reports


time (UTC)temp
C
wind
direction
speed
KPH
gust
KPH
rain 1hr
cm
rain 24hr
cm
rain mn
cm
humidity
%
barometer
mb
20260507195003 8 0 0.0 0.0 0.00 0.00 0.00 78 1019.3
20260507194216 8 0 0.0 0.0 0.00 0.00 0.00 77 1019.2
20260507193003 10 309 0.0 6.4 0.00 0.00 0.00 76 1019.1
20260507192216 10 316 0.0 6.4 0.00 0.00 0.00 75 1019.0
20260507191216 10 358 0.0 8.0 0.00 0.00 0.00 75 1019.0
20260507190004 10 355 0.0 3.2 0.00 0.00 0.00 74 1018.8
20260507185003 11 356 0.0 8.0 0.00 0.00 0.00 73 1018.7
20260507184003 11 0 0.0 0.0 0.00 0.00 0.00 73 1018.6
20260507183218 11 0 0.0 0.0 0.00 0.00 0.00 72 1018.5
20260507182218 11 0 0.0 0.0 0.00 0.00 0.00 71 1018.5
20260507181003 11 0 0.0 0.0 0.00 0.00 0.00 70 1018.5
20260507180003 12 0 0.0 0.0 0.00 0.00 0.00 70 1018.4
20260507175218 12 342 0.0 9.7 0.00 0.00 0.00 69 1018.3
20260507174003 12 317 0.0 1.6 0.00 0.00 0.00 68 1018.2
20260507173003 12 325 1.6 16.1 0.00 0.00 0.00 67 1018.1
20260507172003 12 315 1.6 11.3 0.00 0.00 0.00 67 1018.1
20260507171003 12 346 0.0 11.3 0.00 0.00 0.00 66 1018.1
20260507170003 12 315 1.6 17.7 0.00 0.00 0.00 62 1018.0
20260507165217 12 345 0.0 9.7 0.00 0.00 0.00 61 1017.9
20260507164217 12 322 1.6 9.7 0.00 0.00 0.00 59 1017.9
20260507163003 13 343 0.0 17.7 0.00 0.00 0.00 56 1017.9
20260507162003 13 352 1.6 3.2 0.00 0.00 0.00 56 1017.9
20260507161003 13 345 1.6 19.3 0.00 0.00 0.00 58 1018.0
20260507160003 13 325 0.0 12.9 0.00 0.00 0.00 58 1017.9
20260507155003 13 356 17.7 17.7 0.00 0.00 0.00 58 1017.9
20260507154003 13 326 1.6 16.1 0.00 0.00 0.00 58 1017.8
20260507153003 14 324 1.6 17.7 0.00 0.00 0.00 57 1017.8
20260507152217 14 341 0.0 17.7 0.00 0.00 0.00 57 1017.8
20260507151003 15 348 1.6 11.3 0.00 0.00 0.00 58 1017.8
20260507150003 15 353 0.0 20.9 0.00 0.00 0.00 54 1017.7
20260507145003 16 289 0.0 8.0 0.00 0.00 0.00 52 1017.7
20260507144003 17 346 0.0 17.7 0.00 0.00 0.00 47 1017.6
20260507143003 17 317 0.0 9.7 0.00 0.00 0.00 49 1017.7
20260507142003 16 338 1.6 22.5 0.00 0.00 0.00 49 1017.8
20260507141003 16 349 1.6 25.7 0.00 0.00 0.00 50 1017.8
20260507140003 17 332 0.0 19.3 0.00 0.00 0.00 49 1017.8
20260507135003 17 342 0.0 9.7 0.00 0.00 0.00 49 1017.8
20260507134003 17 357 0.0 19.3 0.00 0.00 0.00 47 1017.8
20260507133003 17 319 1.6 19.3 0.00 0.00 0.00 48 1017.8
20260507132003 17 342 1.6 22.5 0.00 0.00 0.00 50 1017.7
20260507131003 17 341 1.6 19.3 0.00 0.00 0.00 50 1017.6
20260507130003 17 340 0.0 19.3 0.00 0.00 0.00 48 1017.6
20260507125003 17 329 1.6 19.3 0.00 0.00 0.00 50 1017.5
20260507124003 17 344 1.6 16.1 0.00 0.00 0.00 50 1017.5
20260507123003 17 337 0.0 16.1 0.00 0.00 0.00 48 1017.4
20260507122003 17 346 0.0 16.1 0.00 0.00 0.00 48 1017.4
20260507121003 17 330 1.6 17.7 0.00 0.00 0.00 49 1017.4
20260507120004 16 338 3.2 19.3 0.00 0.00 0.00 51 1017.3
20260507115217 16 337 1.6 25.7 0.00 0.00 0.00 51 1017.3
20260507114217 16 334 1.6 20.9 0.00 0.00 0.00 52 1017.3
20260507113003 16 304 0.0 16.1 0.00 0.00 0.00 53 1017.2
20260507112003 16 340 1.6 16.1 0.00 0.00 0.00 54 1017.2
20260507111003 16 355 0.0 8.0 0.00 0.00 0.00 53 1017.3
20260507110003 16 328 0.0 17.7 0.00 0.00 0.00 55 1017.2
20260507105003 15 351 1.6 20.9 0.00 0.00 0.00 55 1017.2
20260507104003 15 328 1.6 16.1 0.00 0.00 0.00 56 1017.2
20260507103003 15 347 0.0 16.1 0.00 0.00 0.00 56 1017.2
20260507102003 15 314 1.6 16.1 0.00 0.00 0.00 56 1017.2
20260507101003 15 334 1.6 9.7 0.00 0.00 0.00 55 1017.1
20260507100003 14 0 0.0 0.0 0.00 0.00 0.00 54 1017.0
20260507095003 14 326 1.6 16.1 0.00 0.00 0.00 53 1016.9
20260507094003 14 341 1.6 1.6 0.00 0.00 0.00 53 1016.9
20260507093003 13 339 1.6 11.3 0.00 0.00 0.00 52 1016.9
20260507092003 12 326 9.7 9.7 0.00 0.00 0.00 51 1016.9
20260507091003 13 342 11.3 11.3 0.00 0.00 0.00 53 1016.8
20260507090004 12 359 9.7 9.7 0.00 0.00 0.00 55 1016.8
20260507085216 12 322 0.0 9.7 0.00 0.00 0.00 60 1016.7
20260507084216 12 349 1.6 11.3 0.00 0.00 0.00 65 1016.7
20260507083003 12 319 11.3 11.3 0.00 0.00 0.00 69 1016.5
20260507082216 12 0 0.0 0.0 0.00 0.00 0.00 72 1016.5
20260507081003 12 0 0.0 0.0 0.00 0.00 0.00 74 1016.4
20260507080003 11 0 0.0 0.0 0.00 0.00 0.00 74 1016.4
20260507075003 11 0 0.0 0.0 0.00 0.00 0.00 74 1016.3
20260507074003 11 0 0.0 0.0 0.00 0.00 0.00 76 1016.2
20260507073003 11 0 0.0 0.0 0.00 0.00 0.00 77 1016.1
20260507072218 11 0 0.0 0.0 0.00 0.00 0.00 77 1016.1
20260507071003 11 0 0.0 0.0 0.00 0.00 0.00 77 1015.9
20260507070005 10 0 0.0 0.0 0.00 0.00 0.00 78 1015.8
20260507065003 10 0 0.0 0.0 0.00 0.00 0.00 79 1015.8
20260507064003 10 312 0.0 8.0 0.00 0.00 0.00 81 1015.7
20260507063003 9 303 0.0 6.4 0.00 0.00 0.00 82 1015.7
20260507062003 8 349 1.6 6.4 0.00 0.00 0.00 84 1015.7
20260507061003 8 330 8.0 8.0 0.00 0.00 0.00 88 1015.6
20260507060003 7 0 0.0 0.0 0.00 0.00 0.00 90 1015.6
20260507055003 7 0 0.0 0.0 0.00 0.00 0.00 90 1015.6
20260507054003 6 0 0.0 0.0 0.00 0.00 0.00 90 1015.5
20260507053003 6 0 0.0 0.0 0.00 0.00 0.00 90 1015.4
20260507052003 6 0 0.0 0.0 0.00 0.00 0.00 90 1015.4
20260507051217 5 0 0.0 0.0 0.00 0.00 0.00 89 1015.4
20260507050217 4 0 0.0 0.0 0.00 0.00 0.00 89 1015.3
20260507045003 3 0 0.0 0.0 0.00 0.00 0.00 88 1015.2
20260507044003 3 0 0.0 0.0 0.00 0.00 0.00 87 1015.2
20260507043003 3 0 0.0 0.0 0.00 0.00 0.00 87 1015.0
20260507042003 3 0 0.0 0.0 0.00 0.00 0.00 86 1015.0
20260507041003 2 0 0.0 0.0 0.00 0.00 0.00 86 1014.9
20260507040217 2 0 0.0 0.0 0.00 0.00 0.00 85 1014.8
20260507035003 2 0 0.0 0.0 0.00 0.00 0.00 84 1014.7
20260507034216 2 0 0.0 0.0 0.00 0.00 0.00 84 1014.7
20260507033003 2 0 0.0 0.0 0.00 0.00 0.00 83 1014.6
20260507032003 2 0 0.0 0.0 0.00 0.00 0.00 83 1014.6
20260507031003 2 0 0.0 0.0 0.00 0.00 0.00 82 1014.5
20260507030003 2 0 0.0 0.0 0.00 0.00 0.00 82 1014.5
20260507025003 2 0 0.0 0.0 0.00 0.00 0.00 81 1014.4
20260507024003 2 0 0.0 0.0 0.00 0.00 0.00 81 1014.4
20260507023003 2 0 0.0 0.0 0.00 0.00 0.00 80 1014.4
20260507022003 3 0 0.0 0.0 0.00 0.00 0.00 80 1014.4
20260507021003 3 0 0.0 0.0 0.00 0.00 0.00 80 1014.4
20260507020003 3 0 0.0 0.0 0.00 0.00 0.00 79 1014.4
20260507015003 3 0 0.0 0.0 0.00 0.00 0.00 78 1014.4
20260507014003 3 0 0.0 0.0 0.00 0.00 0.00 77 1014.3
20260507013003 3 0 0.0 0.0 0.00 0.00 0.00 77 1014.3
20260507012003 4 0 0.0 0.0 0.00 0.00 0.00 76 1014.3
20260507010003 5 0 0.0 0.0 0.00 0.00 0.00 75 1014.3
20260507005217 5 0 0.0 0.0 0.00 0.00 0.00 75 1014.3
20260507004003 5 0 0.0 0.0 0.00 0.00 0.00 74 1014.2
20260507003003 5 0 0.0 0.0 0.00 0.00 0.00 73 1014.2
20260507002003 6 0 0.0 0.0 0.00 0.00 0.00 72 1014.2
20260507001003 6 0 0.0 0.0 0.00 0.00 0.00 71 1014.1
20260507000003 6 0 0.0 0.0 0.00 0.00 0.00 70 1014.1
20260506235217 6 0 0.0 0.0 0.00 0.00 0.00 69 1013.9
20260506234217 6 0 0.0 0.0 0.00 0.00 0.00 68 1013.9
20260506233003 6 0 0.0 0.0 0.00 0.00 0.00 66 1013.9
20260506232003 7 0 0.0 0.0 0.00 0.00 0.00 66 1013.9
20260506231003 7 0 0.0 0.0 0.00 0.00 0.00 64 1013.9
20260506230003 7 92 1.6 1.6 0.00 0.00 0.00 64 1013.8
20260506225003 7 175 1.6 1.6 0.00 0.00 0.00 64 1013.7
20260506224217 7 0 0.0 0.0 0.00 0.00 0.00 63 1013.7
20260506223216 7 0 3.2 3.2 0.00 0.00 0.00 64 1013.6
20260506222003 7 172 0.0 3.2 0.00 0.00 0.00 65 1013.7
20260506221003 7 178 1.6 11.3 0.00 0.00 0.00 66 1013.7
20260506220004 7 184 1.6 9.7 0.00 0.00 0.00 65 1013.7
20260506215003 6 182 11.3 11.3 0.00 0.00 0.00 66 1013.7
20260506214003 7 164 9.7 9.7 0.00 0.00 0.00 66 1013.6
20260506213003 7 226 3.2 3.2 0.00 0.00 0.00 67 1013.5
20260506212003 7 199 8.0 8.0 0.00 0.00 0.00 67 1013.6
20260506211218 7 178 9.7 9.7 0.00 0.00 0.00 68 1013.5
20260506210003 7 0 0.0 0.0 0.00 0.00 0.00 70 1013.4
20260506205003 8 0 0.0 0.0 0.00 0.00 0.00 71 1013.3
20260506204003 8 0 0.0 0.0 0.00 0.00 0.00 73 1013.4
20260506203218 8 0 0.0 0.0 0.00 0.00 0.00 74 1013.3
20260506202003 9 0 0.0 0.0 0.00 0.00 0.00 75 1013.2
20260506201003 10 0 0.0 0.0 0.00 0.00 0.00 76 1013.1
20260506200003 10 0 0.0 0.0 0.00 0.00 0.00 76 1013.1